Tracking 18980 objects as of 18-Feb-2018
HD Live streaming from Space Station
objects crossing your sky now

EUTE 48A (HB2)

Track EUTE 48A (HB2) now!
EUTE 48A (HB2) is classified as:


NORAD ID: 24665
Int'l Code: 1996-067A
Perigee: 36,319.2 km
Apogee: 36,344.0 km
Inclination: 6.8 °
Period: 1,463.7 minutes
Semi major axis: 42702 km
RCS: 0.003 m2 (small)
Launch date: November 21, 1996
Source: European Telecommunications Satellite Organization (EUTE)
Launch site: AIR FORCE EASTERN TEST RANGE (AFETR)

Full coverage of Europe, Middle East, parts of Africa and Asia; 20 active channels
aabbcc
Your satellite tracking list
Your tracking list is empty




NASA's NSSDC Master Catalog

Two Line Element Set (TLE):
1 24665U 96067A   18047.34764369 -.00000152 +00000-0 +00000-0 0  9992
2 24665 006.7716 053.7584 0002908 009.6256 038.4958 00.98383345078129
Source of the keplerian elements: AFSPC